Volver al catálogo

STARLINK-36477

ActivoComunicacionesVLEO
NORAD 67355·PAYLOAD·🇺🇸 United States

Lanzado Jan 9, 2026 desde Cape Canaveral Space Force Station

Loading…

Próximos Pases (próximas 24 horas)

TLE

ActualizadoSource: CelesTrak SupGP

Época: Sep 14, 2026, 22:31 UTC

1 67355C 26003X   26257.93868056  .00034284  00000+0  12417-2 0  2578
2 67355  43.0024 238.6464 0001441 261.2478  74.8102 15.27561913    17

Sigue STARLINK-36477 en tiempo real con AllMySat

Download on the App Store